Location: Unspecified
(0.0000°N, 0.0000°E)
Time: 03:09:55
(UTC+00:00)

A-11 Canister half - All Passes

Search period start: 28 May 2018 00:00
Search period end: 07 June 2018 00:00
Orbit: 1525 x 1684 km, 47.3° (Epoch: 27 May)

Date Brightness Start Highest point End Pass type
(mag) Time Alt. Az. Time Alt. Az. Time Alt. Az.
28 May - 00:18:51 10° WNW 00:28:10 42° SW 00:37:35 10° SSE night (unlit)
28 May - 09:04:24 10° S 09:10:01 17° SE 09:15:31 10° E daylight
28 May - 11:05:44 10° SW 11:15:11 90° SE 11:24:29 10° NE daylight
28 May - 13:14:49 10° W 13:20:14 17° NW 13:25:41 10° N daylight
28 May - 21:52:21 10° NNW 22:01:32 41° NE 22:10:51 10° ESE visible
28 May - 23:57:05 10° WNW 00:06:31 45° SW 00:16:04 10° SSE visible
29 May - 08:43:13 10° SSE 08:48:21 15° SE 08:53:23 10° ESE daylight
29 May - 10:44:07 10° SW 10:53:35 84° SE 11:02:53 10° NE daylight
29 May - 12:52:43 10° W 12:58:36 18° NW 13:04:29 10° N daylight
29 May - 21:30:54 10° NNW 21:39:54 38° NE 21:49:02 10° ESE visible
29 May - 23:35:20 10° WNW 23:44:52 48° SW 23:54:33 10° SSE visible
30 May - 08:22:07 10° SSE 08:26:40 14° SE 08:31:09 10° ESE daylight
30 May - 10:22:32 10° SW 10:32:01 79° SE 10:41:17 10° NE daylight
30 May - 12:30:40 10° W 12:36:57 20° NW 12:43:15 10° N daylight
30 May - 21:09:27 10° NNW 21:18:16 36° NE 21:27:11 10° ESE visible
30 May - 23:13:36 10° WNW 23:23:13 52° SW 23:33:01 10° SSE visible
31 May - 08:01:07 10° SSE 08:04:59 13° SE 08:08:48 10° ESE daylight
31 May - 10:00:57 10° SSW 10:10:25 74° SE 10:19:40 10° NE daylight
31 May - 12:08:40 10° W 12:15:19 22° NW 12:21:58 10° N daylight
31 May - 20:48:02 10° N 20:56:37 33° NE 21:05:20 10° ESE visible
31 May - 22:51:52 10° NW 23:01:35 55° SW 23:11:28 10° SSE visible
01 Jun - 07:40:19 10° SSE 07:43:18 12° SE 07:46:16 10° ESE daylight
01 Jun - 09:39:22 10° SSW 09:48:50 69° SE 09:58:03 10° NE daylight
01 Jun - 11:46:42 10° W 11:53:41 23° NW 12:00:39 10° N daylight
01 Jun - 20:26:36 10° N 20:34:58 31° NE 20:43:27 10° ESE visible
01 Jun - 22:30:11 10° NW 22:39:56 59° SW 22:49:55 10° SSE visible
02 Jun - 07:19:57 10° SSE 07:21:36 10° SE 07:23:15 10° SE daylight
02 Jun - 09:17:48 10° SSW 09:27:14 65° SE 09:36:24 10° NE daylight
02 Jun - 11:24:47 10° W 11:32:04 25° NW 11:39:20 10° N daylight
02 Jun - 20:05:13 10° N 20:13:19 29° NE 20:21:32 10° ESE visible
02 Jun - 22:08:30 10° NW 22:18:18 63° SW 22:28:21 10° SSE visible
03 Jun - 00:21:37 10° WSW 00:24:08 11° SW 00:26:38 10° SSW night (unlit)
03 Jun - 08:56:16 10° SSW 09:05:38 60° SE 09:14:45 10° NE daylight
03 Jun - 11:02:52 10° WSW 11:10:27 28° NW 11:17:59 10° N daylight
03 Jun - 19:43:51 10° N 19:51:39 26° NE 19:59:35 10° ESE visible
03 Jun - 21:46:49 10° NW 21:56:40 68° SW 22:06:46 10° SSE visible
03 Jun - 23:58:47 10° WSW 00:02:24 12° SW 00:06:03 10° SSW night (unlit)
04 Jun - 08:34:42 10° SSW 08:44:02 56° SE 08:53:05 10° NE daylight
04 Jun - 10:41:00 10° WSW 10:48:50 30° NW 10:56:36 10° N daylight
04 Jun - 19:22:31 10° N 19:30:00 24° NE 19:37:37 10° E visible
04 Jun - 21:25:10 10° NW 21:35:03 72° SW 21:45:11 10° SSE visible
04 Jun - 23:36:15 10° WSW 23:40:41 13° SW 23:45:09 10° SSW night (unlit)
05 Jun - 08:13:10 10° SSW 08:22:26 52° SE 08:31:24 10° NE daylight
05 Jun - 10:19:08 10° WSW 10:27:13 32° NW 10:35:12 10° N daylight
05 Jun - 19:01:12 10° N 19:08:21 23° NE 19:15:37 10° E visible
05 Jun - 21:03:32 10° NW 21:13:24 77° SW 21:23:34 10° SE visible
05 Jun - 23:13:53 10° WSW 23:18:58 15° SW 23:24:06 10° SSW visible
06 Jun - 07:51:39 10° SSW 08:00:50 49° SE 08:09:43 10° ENE daylight
06 Jun - 09:57:18 10° WSW 10:05:37 35° NW 10:13:48 10° NNE daylight
06 Jun - 18:39:55 10° N 18:46:41 21° NE 18:53:33 10° E visible
06 Jun - 20:41:54 10° NW 20:51:47 82° SW 21:01:57 10° SE visible
06 Jun - 22:51:38 10° W 22:57:15 16° SW 23:02:58 10° S visible
